Вернуться в каталог

PROTOMETHEE

АктивенНаукаSSO
NORAD 58321·PAYLOAD·🇫🇷 France

Запущен Nov 11, 2023 с Vandenberg Space Force Base

Loading…

Ближайшие Пролёты (ближайшие 24 часа)

TLE

СвежийSource: Space-Track

Эпоха: Sep 14, 2026, 12:04 UTC

1 58321U 23174BT  26257.50288243  .00005861  00000-0  18917-3 0  9999
2 58321  97.3709 335.5161 0007132 195.2651 164.8377 15.32498831158646

Отслеживайте PROTOMETHEE в реальном времени с AllMySat

Download on the App Store